Location: Nebula Knoll Observatory
(43.6666°N, 71.0000°W)
Time: 16:48:07
(UTC-05:00)

Cosmos 1782 - Visible Passes

Search period start: 03 December 2016 00:00
Search period end: 13 December 2016 00:00
Orbit: 540 x 554 km, 82.5° (Epoch: 03 December)

Date Brightness Start Highest point End Pass type
(mag) Time Alt. Az. Time Alt. Az. Time Alt. Az.
03 Dec 4.8 16:43:03 10° SW 16:46:36 29° WNW 16:50:11 10° NNW visible
04 Dec 4.9 16:37:58 10° SW 16:41:27 28° WNW 16:44:57 10° NNW visible
05 Dec 5.0 16:32:53 10° SW 16:36:17 26° WNW 16:39:43 10° NNW visible
